When you browse on this site, cookies collect data to enhance your experience and personalize the content and advertising you see.
Visit our Privacy Policy to learn more. By continuing to use the site, you agree to this use of cookies and data.
  • In Hungary
  • List of Countries
  • For 7 days
  • Water Temperature
  • Weather Map
  • News
  • Weather Widgets
  • user-avatar
    Login

    Hourly Weather Azor

    Today, 20 August, Tuesday

    Time Temperature Precipitation Wind Pressure Humidity
    00:00 +25°C° 0 mm 1 mps 755 mmHg 74%
    01:00 +24°C° 0 mm 1 mps 755 mmHg 74%
    02:00 +24°C° 0 mm 1 mps 755 mmHg 76%
    03:00 +24°C° 0 mm 1 mps 755 mmHg 76%
    04:00 +24°C° 0 mm 1 mps 755 mmHg 76%
    05:00 +24°C° 0 mm 1 mps 755 mmHg 76%
    06:00 +25°C° 0 mm 1 mps 755 mmHg 71%
    07:00 +27°C° 0 mm 2 mps 756 mmHg 66%
    08:00 +29°C° 0 mm 2 mps 756 mmHg 61%
    09:00 +30°C° 0 mm 2 mps 756 mmHg 58%
    10:00 +31°C° 0 mm 3 mps 756 mmHg 54%
    11:00 +33°C° 0 mm 3 mps 756 mmHg 51%
    12:00 +33°C° 0 mm 4 mps 755 mmHg 52%
    13:00 +33°C° 0 mm 4 mps 755 mmHg 53%
    14:00 +33°C° 0 mm 5 mps 755 mmHg 53%
    15:00 +33°C° 0 mm 5 mps 755 mmHg 56%
    16:00 +32°C° 0 mm 5 mps 755 mmHg 59%
    17:00 +32°C° 0 mm 5 mps 755 mmHg 61%
    18:00 +29°C° 0 mm 4 mps 755 mmHg 68%
    19:00 +28°C° 0 mm 3 mps 756 mmHg 74%
    20:00 +27°C° 0 mm 2 mps 756 mmHg 81%
    21:00 +27°C° 0 mm 2 mps 756 mmHg 81%
    22:00 +26°C° 0 mm 2 mps 756 mmHg 82%
    23:00 +26°C° 0 mm 2 mps 756 mmHg 82%

    Tomorrow, 21 August, Wednesday

    Time Temperature Precipitation Wind Pressure Humidity
    00:00 +26°C° 0 mm 2 mps 756 mmHg 82%
    01:00 +26°C° 0 mm 1 mps 755 mmHg 83%
    02:00 +25°C° 0 mm 1 mps 755 mmHg 83%
    03:00 +25°C° 0 mm 1 mps 755 mmHg 83%
    04:00 +25°C° 0 mm 1 mps 755 mmHg 83%
    05:00 +25°C° 0 mm 1 mps 755 mmHg 83%
    06:00 +26°C° 0 mm 1 mps 756 mmHg 77%
    07:00 +28°C° 0 mm 1 mps 756 mmHg 71%
    08:00 +29°C° 0 mm 1 mps 756 mmHg 64%
    09:00 +30°C° 0 mm 2 mps 756 mmHg 59%
    10:00 +33°C° 0 mm 3 mps 756 mmHg 53%
    11:00 +34°C° 0 mm 4 mps 756 mmHg 48%
    12:00 +34°C° 0 mm 4 mps 756 mmHg 47%
    13:00 +34°C° 0 mm 5 mps 755 mmHg 46%
    14:00 +34°C° 0 mm 6 mps 755 mmHg 45%
    15:00 +33°C° 0 mm 6 mps 755 mmHg 48%
    16:00 +33°C° 0 mm 6 mps 754 mmHg 51%
    17:00 +32°C° 0 mm 5 mps 754 mmHg 53%
    18:00 +29°C° 0 mm 5 mps 755 mmHg 60%
    19:00 +28°C° 0 mm 4 mps 755 mmHg 68%
    20:00 +27°C° 0 mm 3 mps 755 mmHg 75%
    21:00 +26°C° 0 mm 3 mps 755 mmHg 76%
    22:00 +26°C° 0 mm 2 mps 755 mmHg 77%
    23:00 +25°C° 0 mm 2 mps 755 mmHg 79%

    Day after tomorrow, 22 August, Thursday

    Time Temperature Precipitation Wind Pressure Humidity
    00:00 +25°C° 0 mm 2 mps 755 mmHg 79%
    01:00 +25°C° 0 mm 1 mps 755 mmHg 79%
    02:00 +25°C° 0 mm 1 mps 755 mmHg 78%
    03:00 +24°C° 0 mm 1 mps 755 mmHg 79%
    04:00 +24°C° 0 mm 1 mps 754 mmHg 80%
    05:00 +24°C° 0 mm 1 mps 754 mmHg 80%
    06:00 +26°C° 0 mm 1 mps 755 mmHg 73%
    07:00 +27°C° 0 mm 1 mps 755 mmHg 66%
    08:00 +29°C° 0 mm 1 mps 755 mmHg 59%
    09:00 +31°C° 0 mm 2 mps 755 mmHg 55%
    10:00 +33°C° 0 mm 3 mps 754 mmHg 50%
    11:00 +34°C° 0 mm 4 mps 754 mmHg 45%
    12:00 +34°C° 0 mm 5 mps 754 mmHg 47%
    13:00 +34°C° 0 mm 6 mps 753 mmHg 49%
    14:00 +34°C° 0 mm 6 mps 753 mmHg 51%
    15:00 +33°C° 0 mm 6 mps 753 mmHg 55%
    16:00 +33°C° 0 mm 6 mps 753 mmHg 58%
    17:00 +32°C° 0 mm 6 mps 752 mmHg 62%
    18:00 +30°C° 0 mm 6 mps 753 mmHg 67%
    19:00 +29°C° 0 mm 5 mps 753 mmHg 73%
    20:00 +28°C° 0 mm 4 mps 753 mmHg 79%
    21:00 +27°C° 0 mm 3 mps 753 mmHg 81%
    22:00 +27°C° 0 mm 2 mps 753 mmHg 82%
    23:00 +26°C° 0 mm 2 mps 753 mmHg 84%

    23 August, Friday

    Time Temperature Precipitation Wind Pressure Humidity
    00:00 +26°C° 0 mm 2 mps 753 mmHg 84%
    01:00 +26°C° 0 mm 2 mps 753 mmHg 84%
    02:00 +26°C° 0 mm 2 mps 753 mmHg 84%
    03:00 +26°C° 0 mm 2 mps 753 mmHg 84%
    04:00 +25°C° 0 mm 2 mps 753 mmHg 84%
    05:00 +25°C° 0 mm 2 mps 753 mmHg 85%
    06:00 +27°C° 0 mm 1 mps 753 mmHg 78%
    07:00 +28°C° 0 mm 1 mps 753 mmHg 72%
    08:00 +30°C° 0 mm 1 mps 753 mmHg 65%
    09:00 +31°C° 0 mm 2 mps 753 mmHg 60%
    10:00 +34°C° 0 mm 4 mps 753 mmHg 54%
    11:00 +35°C° 0 mm 5 mps 752 mmHg 49%
    12:00 +35°C° 0 mm 5 mps 752 mmHg 50%
    13:00 +35°C° 0 mm 6 mps 751 mmHg 52%
    14:00 +35°C° 0 mm 6 mps 751 mmHg 53%
    15:00 +34°C° 0 mm 6 mps 751 mmHg 57%
    16:00 +33°C° 0 mm 6 mps 751 mmHg 61%
    17:00 +32°C° 0 mm 6 mps 751 mmHg 64%
    18:00 +30°C° 0 mm 5 mps 751 mmHg 71%
    19:00 +29°C° 0 mm 3 mps 751 mmHg 77%
    20:00 +28°C° 0 mm 2 mps 752 mmHg 83%
    21:00 +27°C° 0 mm 2 mps 752 mmHg 84%
    22:00 +27°C° 0 mm 1 mps 752 mmHg 84%
    23:00 +27°C° 0 mm 1 mps 752 mmHg 85%

    24 August, Saturday

    Time Temperature Precipitation Wind Pressure Humidity
    00:00 +27°C° 0 mm 1 mps 752 mmHg 85%
    01:00 +27°C° 0 mm 1 mps 752 mmHg 85%
    02:00 +27°C° 0 mm 1 mps 752 mmHg 85%
    03:00 +27°C° 0 mm 1 mps 752 mmHg 85%
    04:00 +27°C° 0 mm 1 mps 752 mmHg 86%
    05:00 +27°C° 0 mm 2 mps 752 mmHg 86%
    06:00 +28°C° 0 mm 2 mps 752 mmHg 80%
    07:00 +29°C° 0 mm 2 mps 753 mmHg 75%
    08:00 +30°C° 0 mm 2 mps 753 mmHg 69%
    09:00 +31°C° 0 mm 3 mps 753 mmHg 64%
    10:00 +34°C° 0 mm 4 mps 753 mmHg 59%
    11:00 +35°C° 0 mm 5 mps 753 mmHg 53%
    12:00 +35°C° 0 mm 5 mps 753 mmHg 54%
    13:00 +35°C° 0 mm 5 mps 752 mmHg 55%
    14:00 +35°C° 0 mm 5 mps 752 mmHg 56%
    15:00 +34°C° 0 mm 5 mps 752 mmHg 59%
    16:00 +33°C° 0 mm 4 mps 752 mmHg 61%
    17:00 +33°C° 0 mm 4 mps 752 mmHg 64%
    18:00 +30°C° 0 mm 3 mps 752 mmHg 71%
    19:00 +29°C° 0 mm 2 mps 753 mmHg 77%
    20:00 +27°C° 0 mm 1 mps 753 mmHg 84%
    21:00 +27°C° 0 mm 1 mps 753 mmHg 84%
    22:00 +27°C° 0 mm 1 mps 753 mmHg 84%
    23:00 +26°C° 0 mm 1 mps 753 mmHg 84%

    25 August, Sunday

    Time Temperature Precipitation Wind Pressure Humidity
    00:00 +26°C° 0 mm 1 mps 753 mmHg 83%
    01:00 +26°C° 0 mm 1 mps 753 mmHg 83%
    02:00 +24°C° 0 mm 0 mps 753 mmHg 82%
    03:00 +25°C° 0 mm 1 mps 753 mmHg 83%
    04:00 +25°C° 0 mm 1 mps 753 mmHg 83%
    05:00 +25°C° 0 mm 1 mps 753 mmHg 84%
    06:00 +27°C° 0 mm 1 mps 753 mmHg 77%
    07:00 +29°C° 0 mm 1 mps 754 mmHg 71%
    08:00 +30°C° 0 mm 2 mps 754 mmHg 64%
    09:00 +32°C° 0 mm 2 mps 754 mmHg 59%
    10:00 +34°C° 0 mm 3 mps 754 mmHg 54%
    11:00 +35°C° 0 mm 4 mps 754 mmHg 49%
    12:00 +36°C° 0 mm 4 mps 754 mmHg 48%
    13:00 +36°C° 0 mm 5 mps 754 mmHg 47%
    14:00 +36°C° 0 mm 5 mps 753 mmHg 47%
    15:00 +35°C° 0 mm 5 mps 753 mmHg 51%
    16:00 +34°C° 0 mm 5 mps 753 mmHg 55%
    17:00 +33°C° 0 mm 5 mps 753 mmHg 59%
    18:00 +30°C° 0 mm 4 mps 753 mmHg 66%
    19:00 +29°C° 0 mm 3 mps 754 mmHg 73%
    20:00 +27°C° 0 mm 3 mps 754 mmHg 81%
    21:00 +27°C° 0 mm 2 mps 754 mmHg 80%
    22:00 +27°C° 0 mm 2 mps 754 mmHg 79%
    23:00 +26°C° 0 mm 1 mps 754 mmHg 78%
    Show more